Location: Antin
(43.3330°N, 0.2804°E)
Time: 11:38:34
(UTC+00:00)

SME Rocket - Pass Details

Date: 04 June 2022
Orbit: 551 x 2650 km, 99.9° (Epoch: 03 July)

Event Time Altitude Azimuth Distance (km) Brightness Sun altitude
Exits shadow 00:12:52 15° 104° (ESE) 1,877 5.4 -24.2°
Maximum altitude 00:15:47 27° 56° (NE) 1,562 5.4 -24.1°
Drops below altitude 10° 00:20:55 10° 1° (N) 2,939 7.6 -24.0°
Sets 00:24:23 0° 351° (N) 4,246 8.6 -24.0°
